QPF
0.01 0.01 0.02 0.02 0.02 0.03 0.03 0.04 0.04 0.03 0.02 0.02 0.02 0.02 0.02 0.04 0.03 0.01 0.01 0.01 0.02 0.02 0.02 0.01 0.01 0.02 0.01 0.02 0.03 0.02 0.04 0.07 0.06 0.05 0.05 0.04 0.04 0.03 0.03 0.04 0.05 0.08 0.10
0.01 0.01 0.01 0.02 0.02 0.02 0.04 0.04 0.03 0.03 0.03 0.02 0.01 0.01 0.02 0.04 0.03 0.02 0.01 0.01 0.01 0.01 0.01 0.01 0.01 0.01 0.01 0.01 0.02 0.02 0.03 0.05 0.05 0.04 0.03 0.05 0.04 0.03 0.03 0.03 0.04 0.06 0.08
0.01 0.01 0.03 0.03 0.04 0.04 0.05 0.05 0.05 0.05 0.04 0.03 0.03 0.02 0.02 0.03 0.03 0.02 0.02 0.01 0.01 0.01 0.01 0.01 0.01 0.01 0.02 0.02 0.02 0.02 0.03 0.03 0.04 0.03 0.02 0.04 0.06 0.05 0.05 0.04 0.04 0.06 0.07
0.01 0.02 0.03 0.05 0.05 0.05 0.06 0.06 0.07 0.08 0.08 0.07 0.05 0.04 0.04 0.03 0.02 0.02 0.02 0.02 0.01 0.01 0.02 0.02 0.02 0.01 0.02 0.02 0.02 0.03 0.04 0.04 0.05 0.05 0.03 0.03 0.05 0.06 0.05 0.04 0.05 0.06 0.08
0.03 0.03 0.03 0.03 0.03 0.03 0.03 0.05 0.07 0.09 0.09 0.10 0.08 0.06 0.06 0.04 0.02 0.01 0.01 0.01 0.01 0.01 0.01 0.01 0.01 0.01 0.01 0.01 0.02 0.02 0.05 0.05 0.04 0.04 0.03 0.04 0.04 0.04 0.04 0.04 0.05 0.05 0.05
0.05 0.04 0.04 0.03 0.02 0.01 0.02 0.02 0.04 0.05 0.07 0.08 0.08 0.05 0.04 0.03 0.02 0.02 0.02 0.01 0.01 0.01 0.01 0.01 0.01 0.01 0.01 0.02 0.02 0.03 0.03 0.04 0.03 0.03 0.03 0.03 0.03 0.03 0.04 0.03 0.03 0.04 0.06
0.04 0.03 0.03 0.02 0.02 0.02 0.02 0.02 0.02 0.02 0.03 0.04 0.04 0.03 0.02 0.02 0.03 0.02 0.02 0.02 0.01 0.01 0.01 0.01 0.01 0.00 0.01 0.02 0.02 0.02 0.01 0.02 0.03 0.03 0.02 0.01 0.01 0.02 0.03 0.03 0.03 0.04 0.05
0.04 0.03 0.03 0.03 0.03 0.03 0.03 0.02 0.02 0.01 0.01 0.01 0.01 0.01 0.01 0.01 0.03 0.02 0.03 0.03 0.01 0.01 0.01 0.00 0.00 0.00 0.01 0.01 0.01 0.01 0.01 0.01 0.01 0.02 0.01 0.01 0.01 0.01 0.02 0.03 0.03 0.04 0.05
0.05 0.04 0.05 0.06 0.07 0.07 0.05 0.04 0.04 0.02 0.01 0.01 0.01 0.01 0.01 0.02 0.03 0.03 0.03 0.03 0.02 0.01 0.00 0.00 0.00 0.00 0.01 0.01 0.01 0.00 0.01 0.01 0.01 0.02 0.02 0.02 0.02 0.02 0.02 0.04 0.04 0.05 0.07
0.06 0.07 0.07 0.05 0.04 0.04 0.05 0.04 0.04 0.03 0.02 0.02 0.02 0.01 0.02 0.02 0.03 0.03 0.03 0.02 0.01 0.01 0.00 0.00 0.00 0.00 0.01 0.01 0.00 0.00 0.00 0.01 0.01 0.01 0.01 0.01 0.02 0.03 0.02 0.03 0.04 0.04 0.05
0.08 0.07 0.06 0.05 0.03 0.03 0.04 0.03 0.03 0.03 0.03 0.02 0.02 0.02 0.02 0.02 0.03 0.03 0.02 0.01 0.00 0.00 0.00 0.00 0.00 0.00 0.01 0.01 0.00 0.00 0.00 0.01 0.01 0.01 0.02 0.02 0.02 0.03 0.03 0.03 0.04 0.03 0.03
0.04 0.05 0.05 0.05 0.04 0.04 0.04 0.04 0.04 0.03 0.03 0.02 0.02 0.02 0.02 0.03 0.03 0.03 0.02 0.01 0.01 0.00 0.00 0.00 0.00 0.00 0.00 0.00 0.00 0.00 0.00 0.01 0.02 0.02 0.02 0.02 0.02 0.03 0.05 0.04 0.04 0.04 0.02
0.05 0.05 0.06 0.08 0.07 0.07 0.09 0.10 0.09 0.07 0.05 0.03 0.03 0.01 0.01 0.02 0.02 0.03 0.03 0.03 0.03 0.02 0.01 0.00 0.00 0.00 0.00 0.00 0.00 0.01 0.01 0.01 0.02 0.03 0.04 0.03 0.03 0.04 0.06 0.08 0.08 0.06 0.04
0.06 0.06 0.06 0.07 0.09 0.09 0.10 0.10 0.10 0.11 0.11 0.09 0.05 0.03 0.03 0.03 0.03 0.04 0.04 0.03 0.03 0.02 0.01 0.01 0.01 0.00 0.00 0.00 0.01 0.01 0.01 0.02 0.02 0.04 0.06 0.07 0.06 0.05 0.07 0.07 0.09 0.08 0.08
0.10 0.09 0.07 0.06 0.06 0.06 0.06 0.05 0.06 0.08 0.09 0.09 0.08 0.07 0.07 0.07 0.06 0.06 0.05 0.03 0.03 0.04 0.04 0.03 0.01 0.01 0.01 0.01 0.01 0.01 0.01 0.02 0.02 0.05 0.06 0.07 0.08 0.09 0.10 0.08 0.06 0.06 0.07
0.06 0.06 0.05 0.04 0.03 0.06 0.09 0.08 0.07 0.07 0.08 0.08 0.08 0.07 0.06 0.06 0.06 0.05 0.04 0.04 0.04 0.05 0.05 0.04 0.03 0.03 0.02 0.03 0.04 0.02 0.01 0.01 0.02 0.03 0.04 0.05 0.06 0.07 0.07 0.06 0.05 0.05 0.05
0.02 0.02 0.02 0.02 0.03 0.05 0.09 0.13 0.10 0.08 0.09 0.09 0.09 0.08 0.07 0.07 0.07 0.07 0.05 0.05 0.05 0.05 0.05 0.05 0.05 0.04 0.04 0.05 0.05 0.04 0.03 0.01 0.02 0.02 0.03 0.04 0.04 0.03 0.04 0.04 0.04 0.03 0.02
0.03 0.04 0.03 0.03 0.04 0.05 0.05 0.07 0.07 0.07 0.07 0.06 0.05 0.05 0.05 0.05 0.06 0.06 0.05 0.05 0.04 0.04 0.04 0.05 0.05 0.05 0.06 0.07 0.07 0.08 0.05 0.03 0.03 0.04 0.04 0.04 0.03 0.03 0.03 0.03 0.02 0.02 0.02
0.05 0.04 0.03 0.04 0.04 0.05 0.05 0.05 0.04 0.04 0.04 0.05 0.05 0.04 0.03 0.04 0.05 0.06 0.05 0.04 0.03 0.03 0.04 0.04 0.04 0.05 0.05 0.06 0.07 0.07 0.05 0.04 0.04 0.05 0.05 0.04 0.04 0.03 0.03 0.02 0.02 0.02 0.02
0.04 0.03 0.04 0.04 0.04 0.05 0.04 0.03 0.03 0.03 0.04 0.04 0.04 0.04 0.03 0.03 0.03 0.04 0.04 0.05 0.04 0.04 0.04 0.04 0.05 0.06 0.05 0.05 0.05 0.06 0.06 0.06 0.07 0.06 0.05 0.04 0.04 0.03 0.03 0.02 0.02 0.02 0.01
0.03 0.04 0.04 0.04 0.03 0.03 0.04 0.03 0.04 0.05 0.05 0.05 0.04 0.04 0.04 0.03 0.03 0.02 0.03 0.04 0.05 0.05 0.05 0.05 0.06 0.06 0.05 0.05 0.05 0.06 0.06 0.06 0.06 0.06 0.06 0.05 0.05 0.04 0.03 0.02 0.02 0.01 0.01
0.02 0.03 0.04 0.04 0.03 0.03 0.04 0.05 0.05 0.06 0.06 0.05 0.04 0.03 0.04 0.04 0.04 0.04 0.04 0.04 0.05 0.04 0.04 0.05 0.05 0.06 0.05 0.06 0.06 0.06 0.06 0.06 0.05 0.05 0.04 0.04 0.03 0.03 0.02 0.02 0.02 0.02 0.01
0.03 0.03 0.03 0.03 0.03 0.03 0.05 0.05 0.05 0.04 0.04 0.04 0.03 0.03 0.03 0.03 0.03 0.04 0.04 0.05 0.04 0.03 0.03 0.04 0.04 0.03 0.03 0.03 0.03 0.03 0.03 0.03 0.04 0.03 0.03 0.03 0.03 0.02 0.02 0.02 0.02 0.01 0.02
0.02 0.03 0.03 0.03 0.03 0.03 0.05 0.07 0.06 0.05 0.05 0.04 0.03 0.03 0.03 0.03 0.03 0.04 0.04 0.06 0.06 0.05 0.04 0.03 0.03 0.03 0.04 0.04 0.04 0.04 0.05 0.05 0.04 0.04 0.03 0.02 0.02 0.02 0.02 0.02 0.02 0.02 0.02
0.02 0.03 0.03 0.03 0.03 0.03 0.04 0.05 0.06 0.06 0.06 0.05 0.03 0.03 0.03 0.03 0.03 0.04 0.03 0.04 0.05 0.04 0.03 0.02 0.03 0.03 0.03 0.04 0.05 0.05 0.06 0.07 0.06 0.06 0.05 0.05 0.04 0.04 0.03 0.03 0.02 0.02 0.03
0.02 0.02 0.02 0.02 0.03 0.03 0.04 0.04 0.05 0.06 0.06 0.05 0.04 0.03 0.02 0.02 0.03 0.03 0.03 0.03 0.03 0.02 0.02 0.01 0.01 0.01 0.02 0.03 0.04 0.05 0.06 0.07 0.07 0.05 0.04 0.03 0.03 0.03 0.02 0.02 0.02 0.02 0.02
MSLP
1008.49 1009.13 1009.79 1010.41 1010.95 1011.38 1011.71 1011.97 1012.20 1012.45 1012.76 1013.15 1013.61 1014.13 1014.65 1015.16 1015.60 1015.96 1016.23 1016.42 1016.55 1016.66 1016.77 1016.92 1017.12 1017.39 1017.73 1018.13 1018.58 1019.06 1019.54 1020.00 1020.41 1020.73 1020.96 1021.08 1021.09 1021.01 1020.85 1020.65 1020.45 1020.29 1020.19
1007.83 1008.44 1009.10 1009.74 1010.33 1010.83 1011.25 1011.60 1011.91 1012.24 1012.60 1013.03 1013.52 1014.05 1014.61 1015.14 1015.64 1016.06 1016.40 1016.66 1016.85 1017.00 1017.13 1017.27 1017.43 1017.65 1017.93 1018.27 1018.68 1019.13 1019.62 1020.10 1020.55 1020.94 1021.23 1021.40 1021.45 1021.39 1021.23 1021.01 1020.77 1020.56 1020.40
1007.18 1007.74 1008.36 1009.01 1009.62 1010.18 1010.67 1011.10 1011.51 1011.92 1012.35 1012.83 1013.36 1013.92 1014.50 1015.07 1015.61 1016.08 1016.49 1016.81 1017.07 1017.27 1017.43 1017.58 1017.74 1017.93 1018.18 1018.48 1018.86 1019.29 1019.77 1020.27 1020.76 1021.19 1021.53 1021.76 1021.85 1021.81 1021.66 1021.42 1021.15 1020.88 1020.67
1006.57 1007.05 1007.61 1008.22 1008.82 1009.41 1009.96 1010.47 1010.97 1011.47 1011.99 1012.54 1013.12 1013.73 1014.34 1014.94 1015.51 1016.03 1016.49 1016.87 1017.19 1017.45 1017.66 1017.85 1018.03 1018.22 1018.45 1018.74 1019.09 1019.50 1019.97 1020.47 1020.97 1021.43 1021.81 1022.08 1022.21 1022.20 1022.07 1021.83 1021.54 1021.24 1020.97
1006.05 1006.42 1006.88 1007.41 1007.98 1008.56 1009.14 1009.72 1010.30 1010.90 1011.51 1012.14 1012.79 1013.45 1014.11 1014.74 1015.34 1015.90 1016.40 1016.85 1017.23 1017.55 1017.83 1018.07 1018.28 1018.50 1018.73 1019.01 1019.33 1019.71 1020.15 1020.63 1021.12 1021.59 1021.99 1022.28 1022.45 1022.49 1022.38 1022.17 1021.89 1021.58 1021.29
1005.65 1005.88 1006.22 1006.64 1007.14 1007.68 1008.27 1008.89 1009.54 1010.22 1010.93 1011.65 1012.37 1013.10 1013.80 1014.47 1015.10 1015.70 1016.24 1016.74 1017.18 1017.58 1017.92 1018.22 1018.49 1018.74 1018.99 1019.25 1019.55 1019.89 1020.28 1020.71 1021.17 1021.61 1022.00 1022.32 1022.52 1022.60 1022.55 1022.39 1022.15 1021.87 1021.58
1005.40 1005.50 1005.69 1005.98 1006.37 1006.84 1007.40 1008.04 1008.74 1009.49 1010.27 1011.08 1011.88 1012.66 1013.40 1014.12 1014.78 1015.41 1016.00 1016.55 1017.06 1017.52 1017.94 1018.31 1018.64 1018.93 1019.19 1019.45 1019.71 1020.00 1020.32 1020.68 1021.07 1021.46 1021.84 1022.15 1022.39 1022.52 1022.55 1022.47 1022.30 1022.08 1021.84
1005.34 1005.28 1005.32 1005.46 1005.72 1006.10 1006.60 1007.22 1007.94 1008.73 1009.58 1010.45 1011.31 1012.14 1012.93 1013.68 1014.38 1015.04 1015.67 1016.27 1016.84 1017.37 1017.87 1018.32 1018.71 1019.04 1019.32 1019.57 1019.79 1020.02 1020.27 1020.54 1020.85 1021.18 1021.51 1021.82 1022.08 1022.27 1022.38 1022.40 1022.34 1022.21 1022.05
1005.42 1005.23 1005.12 1005.11 1005.23 1005.50 1005.92 1006.50 1007.20 1008.01 1008.89 1009.79 1010.69 1011.56 1012.39 1013.16 1013.89 1014.58 1015.24 1015.89 1016.52 1017.13 1017.70 1018.22 1018.68 1019.06 1019.37 1019.61 1019.80 1019.97 1020.13 1020.32 1020.54 1020.80 1021.08 1021.38 1021.67 1021.91 1022.11 1022.23 1022.29 1022.28 1022.22
1005.62 1005.31 1005.06 1004.91 1004.90 1005.05 1005.39 1005.90 1006.57 1007.36 1008.23 1009.15 1010.06 1010.94 1011.78 1012.57 1013.31 1014.03 1014.73 1015.42 1016.11 1016.79 1017.43 1018.02 1018.55 1018.98 1019.32 1019.56 1019.73 1019.85 1019.96 1020.07 1020.21 1020.40 1020.64 1020.93 1021.23 1021.53 1021.80 1022.03 1022.20 1022.31 1022.35
1005.85 1005.45 1005.09 1004.82 1004.70 1004.75 1005.00 1005.44 1006.05 1006.80 1007.64 1008.53 1009.43 1010.30 1011.14 1011.92 1012.68 1013.41 1014.14 1014.87 1015.61 1016.35 1017.06 1017.73 1018.32 1018.80 1019.18 1019.44 1019.61 1019.70 1019.76 1019.82 1019.90 1020.05 1020.25 1020.52 1020.84 1021.19 1021.53 1021.85 1022.11 1022.32 1022.46
1006.05 1005.59 1005.16 1004.81 1004.60 1004.58 1004.74 1005.11 1005.66 1006.35 1007.14 1007.98 1008.84 1009.68 1010.49 1011.26 1012.00 1012.74 1013.49 1014.25 1015.04 1015.83 1016.61 1017.34 1017.99 1018.53 1018.95 1019.25 1019.43 1019.52 1019.56 1019.59 1019.65 1019.77 1019.95 1020.22 1020.55 1020.93 1021.32 1021.70 1022.04 1022.33 1022.53
1006.17 1005.68 1005.22 1004.83 1004.58 1004.50 1004.61 1004.92 1005.40 1006.02 1006.74 1007.52 1008.31 1009.10 1009.86 1010.60 1011.33 1012.06 1012.82 1013.61 1014.43 1015.26 1016.08 1016.86 1017.57 1018.17 1018.64 1018.97 1019.18 1019.30 1019.36 1019.39 1019.45 1019.56 1019.75 1020.01 1020.36 1020.76 1021.18 1021.60 1021.99 1022.32 1022.58
1006.19 1005.71 1005.25 1004.87 1004.61 1004.51 1004.59 1004.84 1005.26 1005.81 1006.45 1007.14 1007.86 1008.57 1009.28 1009.97 1010.67 1011.39 1012.15 1012.95 1013.79 1014.65 1015.51 1016.33 1017.07 1017.71 1018.23 1018.61 1018.86 1019.02 1019.11 1019.17 1019.26 1019.39 1019.59 1019.87 1020.23 1020.64 1021.09 1021.53 1021.94 1022.29 1022.57
1006.09 1005.65 1005.24 1004.89 1004.66 1004.58 1004.65 1004.87 1005.23 1005.70 1006.26 1006.86 1007.48 1008.11 1008.75 1009.39 1010.05 1010.75 1011.50 1012.30 1013.15 1014.02 1014.89 1015.73 1016.50 1017.16 1017.71 1018.13 1018.43 1018.64 1018.78 1018.89 1019.02 1019.19 1019.43 1019.73 1020.11 1020.54 1020.99 1021.44 1021.85 1022.21 1022.50
1005.88 1005.52 1005.18 1004.91 1004.74 1004.69 1004.76 1004.97 1005.28 1005.67 1006.14 1006.64 1007.17 1007.71 1008.27 1008.85 1009.47 1010.14 1010.87 1011.66 1012.50 1013.37 1014.24 1015.08 1015.85 1016.52 1017.09 1017.54 1017.88 1018.13 1018.33 1018.50 1018.69 1018.91 1019.19 1019.54 1019.94 1020.38 1020.85 1021.30 1021.71 1022.07 1022.35
1005.59 1005.31 1005.07 1004.90 1004.80 1004.80 1004.90 1005.09 1005.35 1005.68 1006.04 1006.45 1006.87 1007.33 1007.81 1008.33 1008.91 1009.55 1010.25 1011.03 1011.85 1012.70 1013.55 1014.37 1015.12 1015.79 1016.36 1016.82 1017.19 1017.49 1017.74 1017.98 1018.22 1018.51 1018.85 1019.24 1019.68 1020.15 1020.63 1021.09 1021.50 1021.86 1022.14
1005.22 1005.04 1004.91 1004.84 1004.83 1004.88 1005.00 1005.18 1005.40 1005.65 1005.93 1006.23 1006.56 1006.93 1007.34 1007.80 1008.34 1008.94 1009.63 1010.38 1011.18 1012.00 1012.82 1013.61 1014.33 1014.98 1015.54 1016.00 1016.39 1016.72 1017.02 1017.32 1017.63 1017.98 1018.39 1018.84 1019.32 1019.83 1020.33 1020.80 1021.23 1021.59 1021.87
1004.76 1004.70 1004.68 1004.70 1004.78 1004.89 1005.02 1005.18 1005.36 1005.55 1005.74 1005.96 1006.20 1006.48 1006.83 1007.24 1007.74 1008.32 1008.98 1009.70 1010.48 1011.27 1012.06 1012.80 1013.49 1014.10 1014.64 1015.10 1015.50 1015.86 1016.20 1016.55 1016.93 1017.35 1017.82 1018.33 1018.87 1019.42 1019.95 1020.45 1020.90 1021.27 1021.56
1004.20 1004.25 1004.34 1004.46 1004.60 1004.76 1004.91 1005.06 1005.20 1005.32 1005.45 1005.58 1005.75 1005.97 1006.26 1006.63 1007.10 1007.66 1008.30 1009.00 1009.75 1010.51 1011.26 1011.96 1012.61 1013.19 1013.70 1014.15 1014.55 1014.93 1015.32 1015.72 1016.16 1016.65 1017.19 1017.76 1018.36 1018.96 1019.53 1020.06 1020.53 1020.92 1021.22
1003.55 1003.70 1003.87 1004.07 1004.28 1004.47 1004.64 1004.78 1004.88 1004.96 1005.03 1005.10 1005.22 1005.39 1005.64 1005.99 1006.43 1006.97 1007.60 1008.28 1009.01 1009.74 1010.45 1011.11 1011.72 1012.27 1012.75 1013.19 1013.60 1014.00 1014.42 1014.87 1015.37 1015.93 1016.53 1017.16 1017.81 1018.46 1019.08 1019.64 1020.13 1020.54 1020.86
1002.81 1003.03 1003.28 1003.54 1003.80 1004.02 1004.20 1004.33 1004.41 1004.46 1004.49 1004.53 1004.61 1004.76 1004.99 1005.32 1005.76 1006.28 1006.90 1007.56 1008.26 1008.96 1009.64 1010.27 1010.85 1011.36 1011.83 1012.26 1012.68 1013.10 1013.55 1014.05 1014.60 1015.21 1015.87 1016.56 1017.26 1017.95 1018.60 1019.20 1019.72 1020.14 1020.48
1002.00 1002.27 1002.58 1002.88 1003.16 1003.41 1003.59 1003.73 1003.80 1003.84 1003.86 1003.90 1003.97 1004.11 1004.34 1004.66 1005.09 1005.62 1006.21 1006.87 1007.54 1008.21 1008.86 1009.46 1010.00 1010.50 1010.96 1011.39 1011.81 1012.26 1012.75 1013.28 1013.88 1014.53 1015.24 1015.97 1016.71 1017.44 1018.12 1018.74 1019.28 1019.72 1020.07
1001.14 1001.45 1001.78 1002.12 1002.42 1002.68 1002.88 1003.02 1003.11 1003.15 1003.18 1003.23 1003.31 1003.46 1003.70 1004.03 1004.46 1004.98 1005.56 1006.19 1006.84 1007.49 1008.11 1008.68 1009.21 1009.70 1010.15 1010.59 1011.03 1011.50 1012.02 1012.59 1013.22 1013.91 1014.64 1015.41 1016.17 1016.92 1017.62 1018.26 1018.81 1019.27 1019.63
1000.27 1000.60 1000.95 1001.29 1001.61 1001.88 1002.09 1002.25 1002.35 1002.42 1002.48 1002.55 1002.66 1002.83 1003.08 1003.42 1003.85 1004.36 1004.93 1005.54 1006.17 1006.79 1007.39 1007.95 1008.47 1008.95 1009.41 1009.86 1010.33 1010.83 1011.37 1011.97 1012.63 1013.34 1014.09 1014.87 1015.65 1016.40 1017.11 1017.75 1018.31 1018.79 1019.16
999.40 999.74 1000.10 1000.45 1000.77 1001.05 1001.27 1001.44 1001.57 1001.67 1001.76 1001.86 1002.00 1002.20 1002.47 1002.82 1003.25 1003.74 1004.30 1004.89 1005.50 1006.10 1006.69 1007.24 1007.77 1008.26 1008.75 1009.23 1009.72 1010.25 1010.82 1011.45 1012.12 1012.84 1013.60 1014.38 1015.15 1015.90 1016.60 1017.24 1017.80 1018.28 1018.67
Thickness
5791 5788 5785 5782 5779 5776 5772 5769 5767 5764 5762 5759 5757 5755 5752 5750 5747 5745 5742 5739 5736 5734 5733 5731 5729 5728 5725 5724 5723 5721 5718 5714 5709 5710 5711 5711 5711 5711 5710 5710 5709 5708 5707
5789 5785 5781 5778 5775 5771 5768 5766 5764 5761 5759 5756 5753 5751 5748 5745 5743 5740 5737 5735 5731 5729 5727 5725 5723 5723 5720 5719 5717 5715 5713 5711 5707 5703 5703 5703 5703 5704 5703 5702 5702 5702 5700
5785 5780 5776 5773 5770 5766 5764 5761 5759 5757 5754 5752 5749 5746 5743 5740 5738 5735 5732 5730 5727 5725 5722 5720 5718 5716 5713 5712 5710 5708 5707 5707 5703 5699 5697 5697 5697 5697 5695 5695 5695 5694 5694
5780 5775 5771 5768 5765 5763 5761 5758 5755 5752 5749 5746 5743 5740 5737 5735 5732 5730 5727 5725 5722 5720 5718 5715 5713 5711 5708 5706 5705 5702 5701 5698 5696 5693 5690 5689 5689 5689 5687 5686 5685 5685 5686
5775 5771 5767 5764 5762 5759 5756 5753 5750 5747 5745 5741 5737 5734 5731 5729 5728 5725 5723 5720 5716 5713 5711 5709 5708 5706 5705 5703 5701 5697 5694 5691 5688 5685 5683 5681 5680 5679 5678 5678 5677 5677 5678
5770 5765 5763 5759 5756 5754 5751 5748 5744 5741 5738 5735 5731 5728 5725 5724 5723 5721 5718 5714 5710 5707 5704 5703 5702 5700 5699 5697 5696 5693 5690 5686 5682 5679 5676 5674 5673 5673 5673 5673 5670 5668 5668
5765 5761 5757 5753 5750 5748 5746 5742 5738 5735 5732 5729 5725 5722 5719 5718 5717 5715 5713 5709 5705 5702 5699 5697 5696 5695 5692 5690 5689 5687 5685 5683 5680 5675 5672 5670 5669 5669 5667 5666 5665 5663 5662
5758 5755 5752 5749 5745 5742 5739 5735 5732 5729 5726 5723 5721 5717 5714 5713 5712 5710 5707 5703 5699 5697 5694 5692 5689 5687 5686 5684 5681 5679 5677 5676 5674 5672 5670 5669 5668 5666 5664 5663 5660 5659 5658
5750 5748 5746 5744 5740 5735 5731 5729 5727 5724 5720 5718 5716 5713 5710 5708 5707 5705 5702 5696 5693 5690 5688 5686 5684 5681 5680 5678 5675 5672 5670 5669 5669 5668 5666 5665 5664 5662 5660 5657 5653 5650 5648
5743 5742 5740 5738 5735 5731 5728 5725 5723 5719 5716 5713 5710 5708 5706 5704 5703 5700 5696 5691 5686 5683 5681 5680 5678 5676 5675 5672 5668 5665 5662 5662 5661 5661 5660 5659 5658 5656 5655 5652 5649 5644 5641
5738 5736 5734 5732 5730 5727 5723 5721 5718 5714 5710 5707 5705 5703 5700 5699 5698 5695 5692 5686 5682 5678 5675 5673 5672 5671 5669 5666 5664 5661 5659 5657 5655 5653 5652 5651 5650 5649 5648 5646 5644 5641 5638
5730 5728 5727 5725 5724 5722 5717 5714 5711 5707 5703 5700 5697 5695 5695 5694 5692 5690 5687 5684 5680 5674 5671 5669 5668 5666 5664 5661 5658 5657 5655 5652 5649 5647 5646 5644 5643 5642 5642 5640 5639 5637 5636
5722 5720 5719 5718 5717 5714 5710 5706 5703 5699 5695 5693 5691 5689 5687 5687 5685 5684 5681 5678 5674 5670 5668 5666 5663 5661 5658 5655 5653 5652 5649 5645 5643 5641 5640 5639 5638 5637 5635 5633 5632 5631 5629
5714 5712 5710 5709 5707 5705 5702 5700 5696 5692 5690 5686 5685 5683 5681 5679 5678 5676 5673 5670 5666 5663 5660 5659 5656 5654 5651 5649 5647 5645 5642 5640 5638 5636 5634 5633 5632 5629 5627 5626 5623 5622 5619
5706 5704 5702 5700 5698 5695 5693 5692 5690 5689 5687 5684 5681 5679 5676 5673 5674 5671 5666 5662 5659 5655 5652 5649 5646 5644 5642 5641 5639 5638 5636 5634 5631 5630 5628 5626 5624 5622 5619 5618 5615 5613 5610
5698 5696 5693 5691 5689 5687 5684 5682 5683 5683 5683 5681 5679 5676 5674 5672 5670 5665 5661 5658 5653 5649 5645 5641 5639 5637 5635 5634 5632 5631 5629 5628 5626 5624 5622 5619 5617 5614 5612 5610 5608 5605 5603
5690 5688 5686 5683 5681 5679 5677 5675 5674 5675 5675 5674 5672 5670 5667 5665 5662 5658 5655 5651 5647 5643 5638 5636 5634 5632 5630 5628 5627 5625 5624 5623 5621 5618 5616 5613 5610 5607 5605 5602 5600 5598 5596
5682 5680 5679 5676 5674 5673 5671 5669 5667 5665 5663 5663 5664 5663 5661 5658 5655 5651 5647 5642 5639 5636 5633 5631 5629 5627 5626 5623 5622 5620 5619 5617 5614 5612 5610 5607 5604 5601 5599 5596 5594 5592 5590
5673 5672 5671 5670 5668 5666 5664 5662 5660 5659 5657 5655 5654 5653 5652 5649 5646 5643 5639 5636 5634 5632 5629 5626 5625 5623 5622 5619 5617 5616 5613 5611 5608 5606 5603 5601 5598 5595 5593 5591 5589 5586 5584
5666 5666 5665 5663 5661 5659 5657 5654 5653 5651 5649 5647 5645 5644 5642 5639 5636 5634 5632 5630 5629 5627 5624 5621 5620 5618 5617 5615 5612 5610 5607 5605 5602 5599 5597 5594 5592 5590 5587 5585 5582 5580 5578
5658 5657 5657 5655 5653 5652 5650 5648 5646 5644 5643 5641 5640 5639 5637 5634 5632 5629 5627 5625 5624 5622 5620 5617 5615 5613 5612 5609 5606 5604 5601 5599 5596 5593 5591 5588 5586 5583 5581 5580 5578 5576 5574
5650 5649 5648 5646 5645 5645 5644 5643 5641 5639 5637 5636 5633 5632 5629 5627 5626 5624 5622 5620 5619 5617 5615 5612 5610 5608 5606 5604 5601 5598 5595 5593 5590 5588 5585 5582 5580 5577 5576 5574 5572 5570 5569
5643 5641 5640 5639 5639 5638 5637 5636 5634 5632 5631 5630 5629 5626 5623 5620 5619 5618 5616 5615 5613 5611 5609 5607 5604 5602 5600 5598 5596 5594 5591 5588 5585 5583 5579 5576 5574 5572 5570 5568 5567 5565 5563
5636 5635 5634 5632 5631 5630 5630 5629 5628 5627 5626 5624 5623 5621 5618 5616 5614 5612 5610 5609 5606 5605 5603 5601 5599 5596 5594 5593 5591 5589 5587 5584 5581 5578 5575 5571 5568 5566 5564 5562 5561 5560 5558
5629 5628 5627 5626 5625 5624 5623 5622 5621 5620 5619 5618 5617 5615 5613 5611 5608 5606 5605 5603 5600 5598 5597 5595 5592 5591 5589 5587 5585 5583 5581 5578 5575 5573 5570 5566 5563 5561 5559 5557 5555 5554 5552
5622 5622 5621 5621 5619 5618 5617 5615 5614 5614 5613 5612 5610 5609 5607 5605 5603 5601 5599 5597 5595 5592 5590 5589 5587 5586 5583 5581 5579 5577 5575 5572 5570 5567 5564 5561 5558 5556 5554 5551 5550 5548 5546